Weather in Glebovo

Russia / Oryol Oblast     52°56′19″N   37°46′05″E
temp.,
°C
wind,
m/s
gust,
m/s
humid.,
%
clouds,
%
prec.,
mm/h
press.,
hPa
HPBL,
m
24 january, mon
mon2400:00−15nne48100100 0.0 103394
03:00−14nne411100100 0.1 1033162
06:00−10ne51396100 0.0 1033301
09:00−9ne61495100 0.1 1033390
12:00−9ne61395100 0.0 1033408
15:00−8ne5109599 0.1 1032325
18:00−11nne5109792 0.0 1032192
21:00−14ne3999100 0.1 1032132
25 january, tue
tue2500:00−16ne3610098 0.0 103181
03:00−19nne2210085 0.0 103023
06:00−21ne2210099 0.0 102920
09:00−22ne22100100 0.0 102812
12:00−14e119778 0.0 102658
15:00−12ssw1294100 0.0 102383
18:00−15sw2298100 0.0 102220
21:00−14sw3596100 0.0 102169
26 january, wed
wed2600:00−13wsw3596100 0.0 102096
03:00−13wsw3694100 0.0 1019128
06:00−15wsw3696100 0.0 101890
09:00−14sw3594100 0.0 101979
12:00−9wsw359398 0.3 1018215
15:00−7wsw359497 0.3 1018305
18:00−9w359775 0.1 101980
21:00−12wnw229877 0.2 102026
27 january, thu
thu2700:00−15wnw2210096 0.1 102021
03:00−16w2210094 0.1 102018
06:00−16wsw22100100 0.1 101911
09:00−12sw2296100 0.1 101940
12:00−12sw249791 0.0 1018132
15:00−10ssw3696100 0.1 1017224
18:00−14ssw359981 0.0 101757
21:00−15ssw38100100 0.0 1016104
28 january, fri
fri2800:00−15s4109993 0.0 1015131
03:00−15ssw4119773 0.0 1014168
06:00−14s5129681 0.1 1012204
09:00−11s51295100 0.1 1010272
12:00−8s61294100 0.1 1008308
15:00−6sse71395100 0.3 1005412
18:00−5s61295100 0.9 1003441
21:00−4s5109699 1.6 1002293